星链-37752(STARLINK-37752)

导读

目前公开可查信息中暂未查询到STARLINK-37752(NORAD编号100048)卫星的具体参数、发射及运行状态等专属信息。 依据星链星座通用背景可参考:该卫星为SpaceX第三代星链(Gen3)星座的组网卫星,若按Gen3规划指标,其干重约2000-2500公斤,单星下行链路容量最高可达1Tbps,主要承担低轨互联网通信服务,支撑全球用户接入、AI设备互联及轨道数据中心回传等业务,是星链下一代规模化通信基础设施的组成部分。

基本信息
目录编号:
100048
目录名称:
STARLINK-37752
国际标识:
2026-161W
轨道中心:
EARTH
卫星名称:
星链-37752
卫星全名:
星链-37752(STARLINK-37752)
卫星状态:
在轨 (已飞行59 天)
发射日期:
2026-07-14 UTC
国别 :
美国 (US)
星等 :
--
轨道信息
数据来源 国际轨道数据 AOE轨道数据
星历时间 2026-09-11T00:41:32+0800
11小时前
查看轨道信息
2026-09-05T02:00:00+0800
6天前
查看轨道信息
半长轴 6837.844km 6837.859km
偏心率 0.0001315 0.0001126
轨道倾角 53.160° 53.161°
近地点辐角 41.303° 94.638°
升交点赤经 43.660° 71.497°
平近点角 318.807° 143.613°
近地点 458.807km 458.952km
远地点 460.607km 460.492km
周期 93.786分钟 93.786分钟
每日圈数 15.354087 15.354038
详细信息
固有亮度:
5
最大亮度:
2.5
卫星平台:
Starlink V1.0
覆盖范围:
全球
运营商:
太空探索技术公司
运营商所在国:
美国
制造商(研发单位):
太空探索技术公司
制造商所在国:
美国
使用方式:
暂无
卫星简介
Starlink 计划是 SpaceX 推出的全球卫星互联网项目,通过发射低轨道卫星,为全球尤其是偏远地区提供高速、低延迟的互联网服务。自 2019 年起,Starlink 已部署数千颗卫星,旨在缩小全球数字鸿沟,推动互联网普及。该项目还为军事、航空等行业提供通信支持,带来广泛经济效益。
2D轨道图
3D轨道图
轨道高度分析图
轨道倾角分析图
轨道综合分析图
查看轨道综合分析图
与全量物体交会距离演化趋势
与全量物体交会风险概率演化趋势